[[{"header":{"parameterUnit":"m.s-1","parameterCategory":1,"la1":30.2991,"la2":30.254,"lo1":-89.0895,"lo2":-89.0444,"dy":0.0017,"dx":0.0017,"nx":28,"ny":28,"refTime":"2023-10-03T03:00:00:Z","depth":0,"parameterNumber":2,"parameterNumberName":"U-component_of_WINDS"},"data":[0,0,0,0,0,0,0,0,0,0,0,0,0,0,0,0,0,0,0,0,0,0,0,0,0,0,0,0,0,0,0,0,0,0,0,0,0,0,0,0,0,0,0,0,0,0,0,0,0,0,0,0,0,0,0,0,0,0,-6.3443,-6.3443,0,-6.3433,-6.3432,-6.3432,-6.3273,-6.3269,-6.3265,-6.3261,-6.325,-6.3254,-6.3257,0,0,0,0,0,0,0,0,0,0,0,0,0,-6.3327,-6.333,-6.3443,-6.3443,-6.3443,-6.3433,-6.3432,-6.3432,-6.3274,-6.3269,-6.3264,-6.3259,-6.3249,-6.3253,-6.3257,0,0,0,0,0,0,0,0,0,0,0,0,0,-6.3353,-6.3331,-6.3443,-6.3363,-6.3355,-6.3433,-6.3432,-6.3432,-6.3275,-6.3269,-6.3263,-6.3257,-6.3248,-6.3253,-6.3258,-6.3412,0,0,-6.3274,-6.3276,0,0,0,0,0,0,0,0,-6.3352,-6.3357,-6.3375,-6.3368,-6.336,-6.3348,-6.3387,-6.3425,-6.3276,-6.3305,-6.3261,-6.3254,-6.3288,-6.3289,-6.33,-6.3411,-6.3411,-6.3274,-6.3278,-6.328,-6.3281,0,0,0,0,0,0,0,-6.335,-6.3357,-6.3439,-6.3375,-6.3366,-6.3327,-6.3324,-6.3394,-6.3331,-6.3302,-6.3291,-6.3292,-6.3283,-6.3296,-6.3299,-6.3411,-6.3274,-6.3279,-6.3282,-6.3284,-6.3647,-6.3653,0,0,0,0,0,0,-6.3359,-6.3357,-6.3439,-6.3439,-6.3341,-6.3334,-6.3331,-6.3358,-6.333,-6.3319,-6.3297,-6.3284,-6.329,-6.3293,-6.3298,-6.3476,-6.328,-6.3285,-6.3288,-6.3641,-6.3648,-6.3655,0,0,0,0,0,0,-6.3358,-6.3368,-6.344,-6.3395,-6.3401,-6.3343,-6.3375,-6.3361,-6.3374,-6.3325,-6.3313,-6.3322,-6.3285,-6.3291,-6.3385,-6.3473,-6.3287,-6.3292,-6.3633,-6.3643,-6.3652,-6.3834,0,0,0,0,0,0,-6.3355,-6.3369,-6.3426,-6.3397,-6.3404,-6.3527,-6.338,-6.3365,-6.3384,-6.3367,-6.3346,-6.3336,-6.3281,-6.3378,-6.339,-6.3477,-6.3296,-6.3625,-6.3637,-6.3649,-6.3819,-6.3848,-6.3873,0,0,0,0,0,-6.3351,-6.3478,-6.343,-6.3441,-6.3475,-6.3532,-6.3536,-6.347,-6.3391,-6.3449,-6.3418,-6.3337,-6.3462,-6.3389,-6.3401,-6.3491,-6.3619,-6.3634,-6.3648,-6.3807,-6.3843,-6.3872,0,0,0,0,0,0,-6.3519,-6.3472,-6.3419,-6.354,-6.3541,-6.3505,-6.3576,-6.3509,-6.3533,-6.3516,-6.3433,-6.3429,-6.3536,-6.3523,-6.3442,-6.3639,-6.3526,-6.3544,-6.3643,-6.3676,-6.3703,-6.3703,-6.33,0,0,0,0,0,-6.357,-6.3621,-6.3577,-6.3688,-6.3692,-6.3635,-6.3657,-6.3606,-6.3604,-6.3604,-6.3579,-6.3581,-6.362,-6.3647,-6.3681,-6.3817,-6.381,-6.3885,-6.3912,-6.3934,-6.3951,-6.4022,-6.4054,-6.3704,-6.3703,-6.3703,0,0,-6.3676,-6.3657,-6.3694,-6.3722,-6.3716,-6.3771,-6.3636,-6.3699,-6.3739,-6.3613,-6.37,-6.3683,-6.3679,-6.3795,-6.3844,-6.3787,-6.4046,-6.3953,-6.3971,-6.3975,-6.404,-6.4073,-6.4103,-6.3713,-6.3712,-6.371,0,0,-6.3896,-6.3887,-6.3978,-6.3977,-6.3971,-6.3932,-6.3954,-6.3929,-6.3912,-6.3999,-6.3906,-6.3952,-6.4021,-6.4022,-6.4032,-6.4255,-6.4182,-6.4268,-6.4408,-6.4479,-6.4506,-6.453,-6.4609,-6.4639,-6.4285,-6.4285,-6.4285,0,-6.4028,-6.4106,-6.4034,-6.4103,-6.4118,-6.4008,-6.41,-6.4101,-6.4108,-6.4121,-6.4056,-6.4142,-6.4131,-6.4246,-6.43,-6.4312,-6.4335,-6.427,-6.4508,-6.4532,-6.4553,-6.4627,-6.4658,-6.4296,-6.4294,-6.4293,-6.4292,0,-6.4269,-6.4325,-6.4399,-6.4408,-6.4432,-6.4513,-6.4452,-6.4485,-6.4432,-6.44,-6.449,-6.4474,-6.4502,-6.4526,-6.4475,-6.4634,-6.4598,-6.4523,-6.4408,-6.4598,-6.4667,-6.4695,-6.4311,-6.4307,-6.4304,-6.4301,0,0,-6.4593,-6.4562,-6.459,-6.4593,-6.4579,-6.4621,-6.4697,-6.4725,-6.4755,-6.4763,-6.4825,-6.4887,-6.4817,-6.4828,-6.4777,-6.4839,-6.5016,-6.4755,-6.4754,-6.4804,-6.519,-6.5246,-6.5281,-6.4968,-6.4973,-6.4977,-6.519,0,-6.4805,-6.4933,-6.487,-6.5006,-6.5056,-6.4953,-6.5019,-6.5018,-6.4991,-6.503,-6.5,-6.5045,-6.495,-6.4956,-6.5013,-6.4983,-6.5092,-6.4967,-6.5024,-6.5027,-6.5028,-6.5316,-6.5376,-6.5578,-6.5217,-6.5221,-6.5224,0,-6.507,-6.509,-6.523,-6.5208,-6.5227,-6.5287,-6.5308,-6.5347,-6.5344,-6.532,-6.5334,-6.5268,-6.5341,-6.5229,-6.5328,-6.5244,-6.5264,-6.5253,-6.526,-6.5261,-6.5137,-6.5326,-6.564,-6.5671,-6.5266,-6.5263,-6.526,0,-6.5292,-6.5354,-6.5445,-6.5451,-6.5428,-6.5473,-6.5465,-6.5456,-6.5477,-6.5496,-6.5508,-6.5536,-6.5551,-6.5573,-6.5517,-6.544,-6.5625,-6.5507,-6.5606,-6.5608,-6.5649,-6.5647,-6.597,-6.5664,-6.5664,-6.5663,-6.5662,0,-6.5534,-6.5625,-6.5545,-6.5602,-6.5699,-6.5627,-6.5726,-6.5707,-6.57,-6.5751,-6.5664,-6.5714,-6.5637,-6.5679,-6.5636,-6.5725,-6.5733,-6.5715,-6.5702,-6.5722,-6.5725,-6.5733,-6.5718,-6.5671,-6.5669,-6.5668,-6.5666,0,-6.5798,-6.5749,-6.5842,-6.5812,-6.5807,-6.5881,-6.5855,-6.5906,-6.5873,-6.594,-6.5951,-6.59,-6.5945,-6.5892,-6.5933,-6.5903,-6.6024,-6.5991,-6.6025,-6.6015,-6.6117,-6.6109,-6.6457,-6.6499,-6.6167,-6.6171,-6.6173,0,-6.5956,-6.6023,-6.6001,-6.6029,-6.6026,-6.6073,-6.6094,-6.6026,-6.6052,-6.6054,-6.6105,-6.6144,-6.617,-6.6248,-6.6215,-6.6246,-6.6212,-6.6333,-6.6216,-6.6235,-6.6213,-6.621,-6.6216,-6.6356,-6.636,-6.6363,-6.6366,0,-6.6241,-6.6214,-6.6247,-6.6274,-6.6302,-6.6319,-6.633,-6.6358,-6.6287,-6.632,-6.6366,-6.6387,-6.6429,-6.6468,-6.6491,-6.6482,-6.6413,-6.6403,-6.6428,-6.6448,-6.6465,-6.6457,-6.6089,-6.6395,-6.6392,-6.639,-6.6388,-6.6387,-6.6456,-6.6511,-6.6504,-6.6545,-6.6546,-6.6558,-6.6605,-6.6578,-6.6615,-6.6644,-6.6602,-6.6659,-6.6655,-6.6678,-6.6678,-6.6722,-6.667,-6.6706,-6.6714,-6.6724,-6.6739,-6.646,-6.6726,-6.6725,-6.6724,-6.6723,-6.6722,0,-6.6736,-6.6727,-6.6765,-6.6783,-6.6816,-6.6748,-6.6757,-6.6788,-6.684,-6.6842,-6.6871,-6.6924,-6.6961,-6.6932,-6.6963,-6.7004,-6.6973,-6.7015,-6.7011,-6.701,-6.6784,-6.6759,-6.7039,-6.7039,-6.7039,-6.7039,-6.7039,-6.7039,-6.6885,-6.6974,-6.6946,-6.7035,-6.7025,-6.708,-6.7091,-6.7102,-6.7103,-6.7166,-6.7197,-6.7178,-6.7167,-6.7198,-6.723,-6.722,-6.7236,-6.7289,-6.7268,-6.7057,-6.7026,-6.6996,-6.6972,-6.7293,-6.7293,-6.749,-6.7491,-6.7493]},{"header":{"parameterUnit":"m.s-1","parameterCategory":1,"la1":30.2991,"la2":30.254,"lo1":-89.0895,"lo2":-89.0444,"dy":0.0017,"dx":0.0017,"nx":28,"ny":28,"refTime":"2023-10-03T03:00:00:Z","depth":0,"parameterNumber":3,"parameterNumberName":"V-component_of_WINDS"},"data":[0,0,0,0,0,0,0,0,0,0,0,0,0,0,0,0,0,0,0,0,0,0,0,0,0,0,0,0,0,0,0,0,0,0,0,0,0,0,0,0,0,0,0,0,0,0,0,0,0,0,0,0,0,0,0,0,0,0,0.0256,0.0257,0,0.0286,0.0287,0.0287,0.0293,0.0292,0.0292,0.0292,0.0321,0.0322,0.0323,0,0,0,0,0,0,0,0,0,0,0,0,0,0.0205,0.0206,0.0256,0.0257,0.0257,0.0286,0.0287,0.0287,0.0293,0.0292,0.0292,0.0292,0.0321,0.0322,0.0323,0,0,0,0,0,0,0,0,0,0,0,0,0,0.023,0.0206,0.0256,0.0264,0.0264,0.0286,0.0287,0.0287,0.0293,0.0292,0.0292,0.0292,0.032,0.0322,0.0323,0.0339,0,0,0.0328,0.0328,0,0,0,0,0,0,0,0,0.0229,0.0232,0.0262,0.0263,0.0264,0.0285,0.0279,0.0305,0.0293,0.0282,0.0292,0.0292,0.0309,0.0312,0.0318,0.0341,0.0342,0.0328,0.0329,0.0329,0.033,0,0,0,0,0,0,0,0.0227,0.0231,0.0268,0.0263,0.0264,0.0266,0.0269,0.0284,0.0297,0.0283,0.0283,0.0287,0.031,0.0317,0.0319,0.0342,0.0328,0.0329,0.033,0.0331,0.0383,0.0384,0,0,0,0,0,0,0.0224,0.0229,0.0267,0.0269,0.0245,0.0267,0.027,0.0279,0.0297,0.03,0.0287,0.0287,0.0314,0.0317,0.032,0.0342,0.0329,0.0331,0.0332,0.0383,0.0383,0.0384,0,0,0,0,0,0,0.0223,0.0227,0.0266,0.0249,0.0254,0.0268,0.0278,0.028,0.0287,0.03,0.0303,0.0292,0.0314,0.0318,0.0335,0.0343,0.0331,0.0333,0.0382,0.0383,0.0384,0.0386,0,0,0,0,0,0,0.0221,0.0227,0.0233,0.0249,0.0255,0.0281,0.0278,0.0281,0.0289,0.0289,0.0305,0.0307,0.0314,0.0333,0.0337,0.0345,0.0334,0.0382,0.0383,0.0384,0.0385,0.0387,0.0388,0,0,0,0,0,0.0219,0.0231,0.0233,0.0237,0.0263,0.0281,0.0285,0.0292,0.029,0.0296,0.0306,0.0307,0.0342,0.0335,0.0339,0.0348,0.0381,0.0382,0.0383,0.0385,0.0387,0.0388,0,0,0,0,0,0,0.0213,0.0233,0.0236,0.0253,0.0266,0.0282,0.029,0.0294,0.0307,0.0306,0.0315,0.0319,0.0336,0.0344,0.0336,0.0366,0.0361,0.0363,0.0361,0.0363,0.0364,0.0362,0.0335,0,0,0,0,0,0.0214,0.0228,0.0244,0.0258,0.0264,0.0276,0.0284,0.029,0.0303,0.0308,0.0319,0.0331,0.0345,0.0354,0.0368,0.0386,0.0391,0.0395,0.0396,0.0397,0.0399,0.0413,0.0415,0.0388,0.0388,0.0388,0,0,0.0216,0.0228,0.0236,0.0257,0.0267,0.0282,0.0281,0.0295,0.0306,0.031,0.0328,0.0337,0.0351,0.0371,0.0379,0.0377,0.0408,0.0399,0.04,0.0401,0.0414,0.0417,0.0419,0.0389,0.0388,0.0388,0,0,0.0226,0.0236,0.025,0.0261,0.0278,0.0287,0.029,0.0307,0.0313,0.0332,0.0336,0.0349,0.0373,0.0384,0.0393,0.0411,0.0414,0.0415,0.0423,0.0436,0.0438,0.044,0.0449,0.0452,0.0417,0.0417,0.0417,0,0.0226,0.0247,0.0257,0.0272,0.0282,0.0288,0.0304,0.0314,0.0333,0.0341,0.0338,0.037,0.038,0.0403,0.0408,0.0414,0.042,0.0414,0.0437,0.0439,0.0441,0.045,0.0453,0.0417,0.0417,0.0417,0.0417,0,0.0247,0.0263,0.0272,0.0293,0.0304,0.0319,0.0332,0.0342,0.0347,0.0356,0.0377,0.0389,0.0407,0.0413,0.0417,0.0438,0.0437,0.0435,0.0431,0.0444,0.0453,0.0456,0.0418,0.0418,0.0418,0.0417,0,0,0.0253,0.0281,0.0285,0.0296,0.0316,0.0328,0.0345,0.0363,0.0373,0.0387,0.0402,0.0423,0.0424,0.0434,0.0439,0.0451,0.0468,0.0449,0.0449,0.0454,0.0495,0.0497,0.0501,0.047,0.047,0.0471,0.0495,0,0.0267,0.0297,0.0308,0.0332,0.0348,0.0356,0.0371,0.0385,0.0395,0.041,0.042,0.0436,0.0434,0.0441,0.0452,0.0464,0.0477,0.0462,0.0485,0.0486,0.0483,0.0505,0.0506,0.0528,0.0498,0.0498,0.0499,0,0.0287,0.0304,0.0331,0.0353,0.036,0.0372,0.0392,0.0406,0.0424,0.043,0.0443,0.0449,0.0468,0.0462,0.0489,0.0479,0.0489,0.0496,0.0497,0.0501,0.0494,0.051,0.0534,0.0538,0.0503,0.0503,0.0503,0,0.0291,0.032,0.0341,0.035,0.0375,0.0385,0.0395,0.0413,0.0425,0.0442,0.045,0.0468,0.0479,0.0494,0.0505,0.0499,0.0532,0.0526,0.0539,0.0539,0.0546,0.0546,0.0574,0.055,0.055,0.055,0.055,0,0.0306,0.0323,0.0344,0.0357,0.0377,0.0389,0.0409,0.042,0.0436,0.0452,0.0459,0.0474,0.0487,0.0504,0.0513,0.0536,0.054,0.0547,0.0549,0.0547,0.0546,0.0555,0.0554,0.0551,0.055,0.055,0.055,0,0.0314,0.0328,0.0352,0.0375,0.0381,0.0395,0.0415,0.0429,0.044,0.0461,0.0466,0.0483,0.0504,0.0517,0.0543,0.0549,0.0575,0.0575,0.0569,0.0571,0.0584,0.0583,0.062,0.0626,0.0596,0.0596,0.0596,0,0.0323,0.0336,0.0362,0.0374,0.0386,0.0405,0.0418,0.0431,0.0445,0.0468,0.0479,0.0501,0.0519,0.0552,0.0567,0.0588,0.0591,0.0602,0.0593,0.0592,0.0594,0.0593,0.0596,0.0603,0.0604,0.0604,0.0604,0,0.0338,0.0346,0.0365,0.0387,0.0403,0.0421,0.0439,0.0448,0.0465,0.048,0.0503,0.0517,0.0545,0.0567,0.059,0.0602,0.0607,0.0607,0.0611,0.061,0.0607,0.0611,0.0575,0.0606,0.0606,0.0606,0.0606,0.0605,0.0348,0.0362,0.0384,0.0406,0.0421,0.0439,0.0454,0.0468,0.0487,0.0513,0.0519,0.0544,0.0564,0.0595,0.0608,0.0628,0.0626,0.0632,0.0633,0.0635,0.0637,0.0603,0.0631,0.0631,0.0631,0.0631,0.0631,0,0.0366,0.0381,0.0401,0.0428,0.0446,0.045,0.0471,0.0486,0.0507,0.0526,0.0545,0.0573,0.0596,0.0614,0.0637,0.065,0.0653,0.0656,0.0656,0.0659,0.0636,0.0631,0.0653,0.0653,0.0653,0.0653,0.0653,0.0653,0.0378,0.0403,0.0413,0.0447,0.0462,0.0487,0.0499,0.0516,0.0532,0.0563,0.0583,0.0595,0.0614,0.064,0.0662,0.0667,0.0676,0.0679,0.0684,0.0662,0.066,0.0658,0.0653,0.068,0.068,0.0706,0.0707,0.0707]}]]